| time (UTC) | temp C | wind direction | speed KPH | gust KPH | rain 1hr cm | rain 24hr cm | rain mn cm | humidity % | barometer mb |
| 20260509212003 | 31 | 348 | 3.2 | 0.0 | 0.00 | 0.00 | 0.00 | 51 | 1007.1 |
| 20260509211003 | 32 | 337 | 8.0 | 0.0 | 0.00 | 0.00 | 0.00 | 51 | 1007.1 |
| 20260509210503 | 32 | 24 | 9.7 | 0.0 | 0.00 | 0.00 | 0.00 | 51 | 1007.0 |
| 20260509210003 | 32 | 14 | 12.9 | 0.0 | 0.00 | 0.00 | 0.00 | 51 | 1007.0 |
| 20260509205503 | 32 | 9 | 9.7 | 0.0 | 0.00 | 0.00 | 0.00 | 52 | 1007.0 |
| 20260509205003 | 31 | 9 | 6.4 | 0.0 | 0.00 | 0.00 | 0.00 | 54 | 1007.0 |
| 20260509204503 | 31 | 17 | 9.7 | 0.0 | 0.00 | 0.00 | 0.00 | 51 | 1007.1 |
| 20260509204003 | 31 | 63 | 9.7 | 0.0 | 0.00 | 0.00 | 0.00 | 53 | 1007.3 |
| 20260509202503 | 32 | 23 | 11.3 | 0.0 | 0.00 | 0.00 | 0.00 | 53 | 1007.6 |
| 20260509202003 | 32 | 18 | 11.3 | 0.0 | 0.00 | 0.00 | 0.00 | 55 | 1007.7 |
| 20260509201503 | 32 | 252 | 9.7 | 0.0 | 0.00 | 0.00 | 0.00 | 52 | 1007.7 |
| 20260509201003 | 32 | 273 | 9.7 | 0.0 | 0.00 | 0.00 | 0.00 | 50 | 1007.9 |
| 20260509200503 | 32 | 293 | 12.9 | 0.0 | 0.00 | 0.00 | 0.00 | 49 | 1007.8 |
| 20260509200003 | 32 | 173 | 4.8 | 0.0 | 0.00 | 0.00 | 0.00 | 50 | 1007.8 |
| 20260509195503 | 31 | 206 | 6.4 | 0.0 | 0.00 | 0.00 | 0.00 | 53 | 1007.9 |
| 20260509195003 | 31 | 231 | 9.7 | 0.0 | 0.00 | 0.00 | 0.00 | 53 | 1007.9 |
| 20260509194003 | 31 | 125 | 6.4 | 0.0 | 0.00 | 0.00 | 0.00 | 55 | 1007.9 |
| 20260509193503 | 31 | 233 | 6.4 | 0.0 | 0.00 | 0.00 | 0.00 | 55 | 1008.1 |
| 20260509193003 | 31 | 280 | 12.9 | 0.0 | 0.00 | 0.00 | 0.00 | 55 | 1008.2 |
| 20260509192003 | 31 | 141 | 6.4 | 0.0 | 0.00 | 0.00 | 0.00 | 56 | 1008.3 |
| 20260509191503 | 31 | 181 | 6.4 | 0.0 | 0.00 | 0.00 | 0.00 | 55 | 1008.4 |
| 20260509191003 | 31 | 217 | 9.7 | 0.0 | 0.00 | 0.00 | 0.00 | 55 | 1008.4 |
| 20260509190503 | 30 | 314 | 6.4 | 0.0 | 0.00 | 0.00 | 0.00 | 58 | 1008.6 |
| 20260509190003 | 30 | 268 | 9.7 | 0.0 | 0.00 | 0.00 | 0.00 | 58 | 1008.5 |
| 20260509185503 | 30 | 222 | 11.3 | 0.0 | 0.00 | 0.00 | 0.00 | 55 | 1008.6 |
| 20260509185003 | 31 | 139 | 8.0 | 0.0 | 0.00 | 0.00 | 0.00 | 57 | 1008.6 |
| 20260509184503 | 30 | 336 | 6.4 | 0.0 | 0.00 | 0.00 | 0.00 | 60 | 1008.7 |
| 20260509184003 | 30 | 205 | 3.2 | 0.0 | 0.00 | 0.00 | 0.00 | 62 | 1008.9 |
| 20260509183503 | 30 | 219 | 6.4 | 0.0 | 0.00 | 0.00 | 0.00 | 61 | 1008.9 |
| 20260509183003 | 30 | 280 | 6.4 | 0.0 | 0.00 | 0.00 | 0.00 | 65 | 1009.0 |
| 20260509182503 | 30 | 283 | 8.0 | 0.0 | 0.00 | 0.00 | 0.00 | 63 | 1009.1 |
| 20260509182003 | 30 | 184 | 6.4 | 0.0 | 0.00 | 0.00 | 0.00 | 62 | 1009.1 |
| 20260509181503 | 29 | 206 | 4.8 | 0.0 | 0.00 | 0.00 | 0.00 | 62 | 1009.3 |
| 20260509180503 | 29 | 251 | 4.8 | 0.0 | 0.00 | 0.00 | 0.00 | 64 | 1009.3 |
| 20260509180003 | 29 | 253 | 6.4 | 0.0 | 0.00 | 0.00 | 0.00 | 65 | 1009.4 |
| 20260509175503 | 29 | 274 | 3.2 | 0.0 | 0.00 | 0.00 | 0.00 | 64 | 1009.5 |
| 20260509175003 | 29 | 348 | 6.4 | 0.0 | 0.00 | 0.00 | 0.00 | 68 | 1009.6 |
| 20260509174503 | 28 | 338 | 6.4 | 0.0 | 0.00 | 0.00 | 0.00 | 69 | 1009.8 |
| 20260509173503 | 28 | 5 | 4.8 | 0.0 | 0.00 | 0.00 | 0.00 | 68 | 1010.0 |
| 20260509173003 | 28 | 349 | 4.8 | 0.0 | 0.00 | 0.00 | 0.00 | 71 | 1010.0 |
| 20260509171003 | 27 | 103 | 4.8 | 0.0 | 0.00 | 0.00 | 0.00 | 74 | 1009.9 |
| 20260509170504 | 27 | 156 | 3.2 | 0.0 | 0.00 | 0.00 | 0.00 | 74 | 1009.9 |
| 20260509170003 | 27 | 71 | 3.2 | 0.0 | 0.00 | 0.00 | 0.00 | 74 | 1010.0 |
| 20260509165503 | 27 | 297 | 1.6 | 0.0 | 0.00 | 0.00 | 0.00 | 75 | 1010.0 |
| 20260509165003 | 27 | 119 | 4.8 | 0.0 | 0.00 | 0.00 | 0.00 | 76 | 1010.0 |
| 20260509164503 | 26 | 120 | 3.2 | 0.0 | 0.00 | 0.00 | 0.00 | 79 | 1010.0 |
| 20260509163503 | 26 | 236 | 1.6 | 0.0 | 0.00 | 0.00 | 0.00 | 78 | 1010.0 |
| 20260509162503 | 26 | 173 | 4.8 | 0.0 | 0.00 | 0.00 | 0.00 | 78 | 1009.9 |
| 20260509162003 | 26 | 211 | 3.2 | 0.0 | 0.00 | 0.00 | 0.00 | 79 | 1009.9 |
| 20260509161003 | 25 | 182 | 4.8 | 0.0 | 0.00 | 0.00 | 0.00 | 81 | 1010.0 |
| 20260509160503 | 25 | 252 | 3.2 | 0.0 | 0.00 | 0.00 | 0.00 | 81 | 1010.1 |
| 20260509160003 | 25 | 207 | 6.4 | 0.0 | 0.00 | 0.00 | 0.00 | 81 | 1009.9 |
| 20260509155503 | 25 | 227 | 8.0 | 0.0 | 0.00 | 0.00 | 0.00 | 80 | 1010.0 |
| 20260509155003 | 25 | 195 | 8.0 | 0.0 | 0.00 | 0.00 | 0.00 | 80 | 1009.9 |
| 20260509154503 | 25 | 175 | 9.7 | 0.0 | 0.00 | 0.00 | 0.00 | 82 | 1009.9 |
| 20260509154003 | 25 | 216 | 8.0 | 0.0 | 0.00 | 0.00 | 0.00 | 81 | 1010.0 |
| 20260509153003 | 25 | 219 | 8.0 | 0.0 | 0.00 | 0.00 | 0.00 | 82 | 1010.0 |
| 20260509152003 | 25 | 211 | 11.3 | 0.0 | 0.00 | 0.00 | 0.00 | 83 | 1009.9 |
| 20260509151003 | 25 | 192 | 12.9 | 0.0 | 0.00 | 0.00 | 0.00 | 83 | 1009.8 |
| 20260509150502 | 25 | 194 | 14.5 | 0.0 | 0.00 | 0.00 | 0.00 | 83 | 1009.8 |
| 20260509150003 | 25 | 224 | 12.9 | 0.0 | 0.00 | 0.00 | 0.00 | 83 | 1009.7 |
| 20260509145503 | 25 | 174 | 17.7 | 0.0 | 0.00 | 0.00 | 0.00 | 83 | 1009.3 |
| 20260509144502 | 25 | 159 | 17.7 | 0.0 | 0.00 | 0.00 | 0.00 | 84 | 1008.8 |
| 20260509144003 | 25 | 194 | 20.9 | 0.0 | 0.00 | 0.00 | 0.00 | 84 | 1008.6 |
| 20260509143502 | 25 | 165 | 27.4 | 0.0 | 0.00 | 0.00 | 0.00 | 84 | 1008.5 |
| 20260509143002 | 25 | 181 | 24.1 | 0.0 | 0.00 | 0.00 | 0.00 | 85 | 1008.5 |
| 20260509142503 | 24 | 183 | 24.1 | 0.0 | 0.00 | 0.00 | 0.00 | 85 | 1008.5 |
| 20260509142002 | 24 | 174 | 24.1 | 0.0 | 0.00 | 0.00 | 0.00 | 86 | 1008.6 |
| 20260509141502 | 24 | 190 | 19.3 | 0.0 | 0.00 | 0.00 | 0.00 | 87 | 1009.0 |
| 20260509141002 | 23 | 184 | 17.7 | 0.0 | 0.00 | 0.00 | 0.00 | 88 | 1009.0 |
| 20260509140002 | 23 | 201 | 16.1 | 0.0 | 0.00 | 0.00 | 0.00 | 87 | 1009.2 |
| 20260509135502 | 23 | 182 | 16.1 | 0.0 | 0.00 | 0.00 | 0.00 | 88 | 1009.2 |
| 20260509134502 | 23 | 175 | 14.5 | 0.0 | 0.00 | 0.00 | 0.00 | 90 | 1009.3 |
| 20260509134002 | 23 | 170 | 16.1 | 0.0 | 0.00 | 0.00 | 0.00 | 90 | 1009.2 |
| 20260509133502 | 23 | 164 | 14.5 | 0.0 | 0.00 | 0.00 | 0.00 | 91 | 1009.2 |
| 20260509133003 | 23 | 173 | 14.5 | 0.0 | 0.00 | 0.00 | 0.00 | 91 | 1009.1 |
| 20260509132003 | 23 | 162 | 11.3 | 0.0 | 0.00 | 0.00 | 0.00 | 92 | 1009.2 |
| 20260509131503 | 23 | 147 | 8.0 | 0.0 | 0.00 | 0.00 | 0.00 | 92 | 1009.3 |
| 20260509131003 | 23 | 176 | 6.4 | 0.0 | 0.00 | 0.00 | 0.00 | 92 | 1009.3 |
| 20260509130503 | 23 | 160 | 6.4 | 0.0 | 0.00 | 0.00 | 0.00 | 93 | 1009.1 |
| 20260509130003 | 23 | 164 | 6.4 | 0.0 | 0.00 | 0.00 | 0.00 | 93 | 1009.0 |
| 20260509125503 | 23 | 155 | 8.0 | 0.0 | 0.00 | 0.00 | 0.00 | 93 | 1009.0 |
| 20260509125003 | 22 | 154 | 12.9 | 0.0 | 0.00 | 0.00 | 0.00 | 93 | 1008.9 |
| 20260509124503 | 22 | 132 | 9.7 | 0.0 | 0.00 | 0.00 | 0.00 | 93 | 1008.8 |
| 20260509124002 | 22 | 132 | 6.4 | 0.0 | 0.00 | 0.00 | 0.00 | 93 | 1009.1 |
| 20260509123503 | 22 | 104 | 3.2 | 0.0 | 0.00 | 0.00 | 0.00 | 93 | 1009.1 |
| 20260509123003 | 22 | 334 | 4.8 | 0.0 | 0.00 | 0.00 | 0.00 | 93 | 1009.3 |
| 20260509122503 | 22 | 345 | 1.6 | 0.0 | 0.00 | 0.00 | 0.00 | 94 | 1009.3 |
| 20260509122003 | 22 | 324 | 6.4 | 0.0 | 0.00 | 0.00 | 0.00 | 94 | 1009.4 |
| 20260509121503 | 22 | 331 | 6.4 | 0.0 | 0.00 | 0.00 | 0.00 | 94 | 1009.5 |
| 20260509121003 | 22 | 320 | 4.8 | 0.0 | 0.00 | 0.00 | 0.00 | 94 | 1009.5 |
| 20260509120503 | 22 | 294 | 6.4 | 0.0 | 0.00 | 0.00 | 0.00 | 94 | 1009.4 |
| 20260509120003 | 22 | 275 | 6.4 | 0.0 | 0.00 | 0.00 | 0.00 | 94 | 1009.4 |
| 20260509115503 | 22 | 292 | 6.4 | 0.0 | 0.00 | 0.00 | 0.00 | 94 | 1009.2 |
| 20260509115003 | 22 | 279 | 4.8 | 0.0 | 0.00 | 0.00 | 0.00 | 94 | 1009.2 |
| 20260509114003 | 22 | 234 | 3.2 | 0.0 | 0.00 | 0.00 | 0.00 | 94 | 1009.3 |
| 20260509113503 | 22 | 234 | 4.8 | 0.0 | 0.00 | 0.00 | 0.00 | 94 | 1009.3 |
| 20260509113003 | 22 | 254 | 4.8 | 0.0 | 0.00 | 0.00 | 0.00 | 94 | 1009.6 |
| 20260509112503 | 22 | 231 | 6.4 | 0.0 | 0.00 | 0.00 | 0.00 | 94 | 1009.6 |
| 20260509112003 | 22 | 254 | 6.4 | 0.0 | 0.00 | 0.00 | 0.00 | 94 | 1009.5 |
| 20260509111003 | 22 | 257 | 6.4 | 0.0 | 0.00 | 0.00 | 0.00 | 93 | 1009.6 |
| 20260509110503 | 22 | 245 | 6.4 | 0.0 | 0.00 | 0.00 | 0.00 | 93 | 1009.7 |
| 20260509110003 | 22 | 307 | 4.8 | 0.0 | 0.00 | 0.00 | 0.00 | 93 | 1009.6 |
| 20260509105503 | 22 | 320 | 6.4 | 0.0 | 0.00 | 0.00 | 0.00 | 93 | 1009.8 |
| 20260509105003 | 22 | 23 | 3.2 | 0.0 | 0.00 | 0.00 | 0.00 | 93 | 1009.8 |
| 20260509104503 | 22 | 355 | 6.4 | 0.0 | 0.00 | 0.00 | 0.00 | 93 | 1009.7 |
| 20260509104003 | 22 | 5 | 6.4 | 0.0 | 0.00 | 0.00 | 0.00 | 93 | 1009.7 |
| 20260509103503 | 22 | 5 | 3.2 | 0.0 | 0.00 | 0.00 | 0.00 | 93 | 1009.6 |
| 20260509103003 | 22 | 27 | 4.8 | 0.0 | 0.00 | 0.00 | 0.00 | 93 | 1009.6 |
| 20260509101503 | 22 | 262 | 0.0 | 0.0 | 0.00 | 0.00 | 0.00 | 92 | 1009.6 |
| 20260509101003 | 22 | 261 | 0.0 | 0.0 | 0.00 | 0.00 | 0.00 | 92 | 1009.6 |
| 20260509100502 | 22 | 277 | 0.0 | 0.0 | 0.00 | 0.00 | 0.00 | 92 | 1009.5 |
| 20260509095502 | 22 | 180 | 4.8 | 0.0 | 0.00 | 0.00 | 0.00 | 92 | 1009.0 |
| 20260509095002 | 22 | 167 | 6.4 | 0.0 | 0.00 | 0.00 | 0.00 | 91 | 1008.8 |
| 20260509094503 | 22 | 175 | 4.8 | 0.0 | 0.00 | 0.00 | 0.00 | 91 | 1009.0 |
| 20260509094002 | 22 | 147 | 4.8 | 0.0 | 0.00 | 0.00 | 0.00 | 91 | 1009.1 |
| 20260509093503 | 23 | 145 | 4.8 | 0.0 | 0.00 | 0.00 | 0.00 | 91 | 1009.0 |
| 20260509093002 | 23 | 119 | 3.2 | 0.0 | 0.00 | 0.00 | 0.00 | 90 | 1008.9 |
| 20260509092503 | 23 | 148 | 0.0 | 0.0 | 0.00 | 0.00 | 0.00 | 90 | 1008.9 |
| 20260509091502 | 23 | 193 | 3.2 | 0.0 | 0.00 | 0.00 | 0.00 | 90 | 1008.8 |
| 20260509091003 | 22 | 193 | 3.2 | 0.0 | 0.00 | 0.00 | 0.00 | 90 | 1008.7 |
| 20260509090503 | 23 | 176 | 6.4 | 0.0 | 0.00 | 0.00 | 0.00 | 90 | 1009.0 |
| 20260509090002 | 23 | 176 | 6.4 | 0.0 | 0.00 | 0.00 | 0.00 | 90 | 1009.0 |
| 20260509085502 | 23 | 169 | 4.8 | 0.0 | 0.00 | 0.00 | 0.00 | 90 | 1009.0 |
| 20260509085003 | 23 | 152 | 3.2 | 0.0 | 0.00 | 0.00 | 0.00 | 90 | 1009.2 |
| 20260509084503 | 23 | 187 | 4.8 | 0.0 | 0.00 | 0.00 | 0.00 | 90 | 1009.4 |
| 20260509084002 | 23 | 183 | 6.4 | 0.0 | 0.00 | 0.00 | 0.00 | 90 | 1009.8 |
| 20260509083503 | 23 | 156 | 8.0 | 0.0 | 0.00 | 0.00 | 0.00 | 89 | 1009.6 |
| 20260509083002 | 23 | 146 | 6.4 | 0.0 | 0.00 | 0.00 | 0.00 | 89 | 1009.4 |
| 20260509082002 | 23 | 205 | 1.6 | 0.0 | 0.00 | 0.00 | 0.00 | 89 | 1009.3 |
| 20260509081502 | 23 | 193 | 0.0 | 0.0 | 0.00 | 0.00 | 0.00 | 89 | 1009.5 |
| 20260509080502 | 23 | 196 | 3.2 | 0.0 | 0.00 | 0.00 | 0.00 | 89 | 1009.5 |
| 20260509080002 | 23 | 200 | 4.8 | 0.0 | 0.00 | 0.00 | 0.00 | 89 | 1009.5 |
| 20260509075003 | 23 | 162 | 8.0 | 0.0 | 0.00 | 0.00 | 0.00 | 89 | 1009.4 |
| 20260509074502 | 23 | 143 | 8.0 | 0.0 | 0.00 | 0.00 | 0.00 | 89 | 1009.3 |
| 20260509073503 | 23 | 149 | 8.0 | 0.0 | 0.00 | 0.00 | 0.00 | 89 | 1009.5 |
| 20260509073002 | 23 | 129 | 4.8 | 0.0 | 0.00 | 0.00 | 0.00 | 88 | 1009.6 |
| 20260509072503 | 23 | 131 | 6.4 | 0.0 | 0.00 | 0.00 | 0.00 | 88 | 1009.7 |
| 20260509072003 | 23 | 131 | 4.8 | 0.0 | 0.00 | 0.00 | 0.00 | 88 | 1009.7 |
| 20260509071502 | 23 | 123 | 4.8 | 0.0 | 0.00 | 0.00 | 0.00 | 88 | 1009.6 |
| 20260509070504 | 23 | 149 | 6.4 | 0.0 | 0.00 | 0.00 | 0.00 | 88 | 1009.6 |
| 20260509070004 | 23 | 125 | 8.0 | 0.0 | 0.00 | 0.00 | 0.00 | 88 | 1009.5 |
| 20260509065004 | 23 | 156 | 8.0 | 0.0 | 0.00 | 0.00 | 0.00 | 88 | 1009.6 |
| 20260509064504 | 23 | 133 | 9.7 | 0.0 | 0.00 | 0.00 | 0.00 | 88 | 1009.6 |
| 20260509062503 | 23 | 141 | 14.5 | 0.0 | 0.00 | 0.00 | 0.00 | 88 | 1009.2 |
| 20260509062003 | 23 | 135 | 14.5 | 0.0 | 0.00 | 0.00 | 0.00 | 88 | 1009.3 |
| 20260509061504 | 23 | 126 | 12.9 | 0.0 | 0.00 | 0.00 | 0.00 | 88 | 1009.3 |
| 20260509061004 | 23 | 131 | 11.3 | 0.0 | 0.00 | 0.00 | 0.00 | 88 | 1009.5 |
| 20260509060503 | 23 | 136 | 11.3 | 0.0 | 0.00 | 0.00 | 0.00 | 87 | 1009.3 |
| 20260509060004 | 23 | 141 | 12.9 | 0.0 | 0.00 | 0.00 | 0.00 | 87 | 1009.4 |
| 20260509055504 | 23 | 129 | 12.9 | 0.0 | 0.00 | 0.00 | 0.00 | 87 | 1009.5 |
| 20260509055004 | 23 | 131 | 14.5 | 0.0 | 0.00 | 0.00 | 0.00 | 87 | 1009.5 |
| 20260509054504 | 23 | 149 | 12.9 | 0.0 | 0.00 | 0.00 | 0.00 | 87 | 1009.4 |
| 20260509054004 | 23 | 153 | 16.1 | 0.0 | 0.00 | 0.00 | 0.00 | 87 | 1009.3 |
| 20260509053504 | 23 | 148 | 16.1 | 0.0 | 0.00 | 0.00 | 0.00 | 87 | 1009.0 |
| 20260509053004 | 23 | 145 | 17.7 | 0.0 | 0.00 | 0.00 | 0.00 | 87 | 1009.0 |
| 20260509052504 | 23 | 142 | 16.1 | 0.0 | 0.00 | 0.00 | 0.00 | 87 | 1009.0 |
| 20260509051504 | 23 | 149 | 14.5 | 0.0 | 0.00 | 0.00 | 0.00 | 87 | 1009.0 |
| 20260509051004 | 23 | 158 | 14.5 | 0.0 | 0.00 | 0.00 | 0.00 | 87 | 1009.0 |
| 20260509050004 | 23 | 149 | 17.7 | 0.0 | 0.00 | 0.00 | 0.03 | 87 | 1009.1 |
| 20260509045504 | 23 | 157 | 14.5 | 0.0 | 0.00 | 0.00 | 0.03 | 87 | 1009.0 |
| 20260509045004 | 23 | 145 | 17.7 | 0.0 | 0.00 | 0.00 | 0.03 | 87 | 1009.0 |
| 20260509044504 | 23 | 137 | 17.7 | 0.0 | 0.00 | 0.00 | 0.03 | 87 | 1008.9 |
| 20260509043504 | 23 | 132 | 17.7 | 0.0 | 0.00 | 0.00 | 0.03 | 87 | 1009.0 |
| 20260509043005 | 23 | 143 | 16.1 | 0.0 | 0.00 | 0.00 | 0.03 | 87 | 1008.9 |
| 20260509042504 | 23 | 143 | 17.7 | 0.0 | 0.00 | 0.00 | 0.03 | 87 | 1008.8 |
| 20260509042004 | 23 | 146 | 16.1 | 0.0 | 0.00 | 0.00 | 0.03 | 86 | 1008.7 |
| 20260509040504 | 23 | 136 | 20.9 | 0.0 | 0.00 | 0.00 | 0.03 | 85 | 1008.6 |
| 20260509040004 | 23 | 142 | 20.9 | 0.0 | 0.00 | 0.00 | 0.03 | 85 | 1008.7 |
| 20260509035504 | 23 | 145 | 19.3 | 0.0 | 0.00 | 0.00 | 0.03 | 84 | 1008.7 |
| 20260509035004 | 23 | 141 | 20.9 | 0.0 | 0.00 | 0.00 | 0.03 | 84 | 1008.6 |
| 20260509034504 | 23 | 148 | 20.9 | 0.0 | 0.00 | 0.00 | 0.03 | 83 | 1008.7 |
| 20260509034004 | 23 | 149 | 19.3 | 0.0 | 0.00 | 0.00 | 0.03 | 83 | 1008.8 |
| 20260509033503 | 23 | 148 | 19.3 | 0.0 | 0.00 | 0.00 | 0.03 | 83 | 1008.7 |
| 20260509033003 | 23 | 139 | 19.3 | 0.0 | 0.00 | 0.00 | 0.03 | 83 | 1008.7 |
| 20260509032503 | 23 | 139 | 17.7 | 0.0 | 0.00 | 0.00 | 0.03 | 83 | 1008.7 |
| 20260509032003 | 23 | 153 | 17.7 | 0.0 | 0.00 | 0.00 | 0.03 | 83 | 1008.7 |
| 20260509031503 | 23 | 132 | 17.7 | 0.0 | 0.00 | 0.00 | 0.03 | 83 | 1008.5 |
| 20260509030004 | 23 | 144 | 14.5 | 0.0 | 0.00 | 0.00 | 0.03 | 83 | 1008.5 |
| 20260509025503 | 23 | 120 | 14.5 | 0.0 | 0.00 | 0.00 | 0.03 | 83 | 1008.4 |
| 20260509025003 | 23 | 136 | 12.9 | 0.0 | 0.00 | 0.00 | 0.03 | 83 | 1008.2 |
| 20260509024003 | 23 | 129 | 11.3 | 0.0 | 0.00 | 0.00 | 0.03 | 83 | 1008.4 |
| 20260509023503 | 24 | 115 | 11.3 | 0.0 | 0.00 | 0.00 | 0.03 | 83 | 1008.4 |
| 20260509023003 | 24 | 115 | 9.7 | 0.0 | 0.00 | 0.00 | 0.03 | 82 | 1008.4 |
| 20260509022004 | 24 | 114 | 9.7 | 0.0 | 0.00 | 0.00 | 0.03 | 82 | 1008.3 |
| 20260509021504 | 24 | 97 | 6.4 | 0.0 | 0.00 | 0.00 | 0.03 | 82 | 1008.3 |
| 20260509021004 | 24 | 126 | 8.0 | 0.0 | 0.00 | 0.00 | 0.03 | 82 | 1008.3 |
| 20260509020504 | 24 | 110 | 8.0 | 0.0 | 0.00 | 0.00 | 0.03 | 82 | 1008.2 |
| 20260509020004 | 24 | 91 | 8.0 | 0.0 | 0.00 | 0.00 | 0.03 | 82 | 1008.2 |
| 20260509015004 | 24 | 99 | 8.0 | 0.0 | 0.00 | 0.00 | 0.03 | 81 | 1008.1 |
| 20260509014504 | 24 | 86 | 6.4 | 0.0 | 0.00 | 0.00 | 0.03 | 81 | 1008.1 |
| 20260509014003 | 24 | 99 | 6.4 | 0.0 | 0.00 | 0.00 | 0.03 | 81 | 1008.2 |
| 20260509013504 | 25 | 90 | 6.4 | 0.0 | 0.00 | 0.00 | 0.03 | 80 | 1008.2 |
| 20260509013003 | 25 | 97 | 8.0 | 0.0 | 0.00 | 0.00 | 0.03 | 80 | 1008.2 |
| 20260509012503 | 25 | 99 | 9.7 | 0.0 | 0.00 | 0.00 | 0.03 | 80 | 1008.2 |
| 20260509011003 | 25 | 97 | 8.0 | 0.0 | 0.00 | 0.00 | 0.03 | 79 | 1008.0 |
| 20260509010503 | 25 | 121 | 8.0 | 0.0 | 0.00 | 0.00 | 0.03 | 79 | 1008.0 |
| 20260509010003 | 25 | 114 | 11.3 | 0.0 | 0.00 | 0.00 | 0.03 | 78 | 1007.9 |
| 20260509005503 | 25 | 116 | 12.9 | 0.0 | 0.00 | 0.00 | 0.03 | 78 | 1007.7 |
| 20260509004503 | 25 | 118 | 14.5 | 0.0 | 0.00 | 0.00 | 0.03 | 77 | 1007.6 |
| 20260509004003 | 25 | 122 | 12.9 | 0.0 | 0.00 | 0.00 | 0.03 | 76 | 1007.6 |
| 20260509003503 | 25 | 123 | 14.5 | 0.0 | 0.00 | 0.00 | 0.03 | 76 | 1007.7 |
| 20260509002503 | 25 | 116 | 12.9 | 0.0 | 0.00 | 0.00 | 0.03 | 76 | 1007.8 |
| 20260509002004 | 25 | 125 | 16.1 | 0.0 | 0.00 | 0.00 | 0.03 | 75 | 1007.9 |
| 20260509001504 | 25 | 132 | 12.9 | 0.0 | 0.00 | 0.00 | 0.03 | 75 | 1007.9 |
| 20260509001004 | 25 | 125 | 12.9 | 0.0 | 0.00 | 0.00 | 0.03 | 75 | 1007.7 |
| 20260509000504 | 26 | 127 | 16.1 | 0.0 | 0.00 | 0.00 | 0.03 | 74 | 1007.8 |
| 20260509000004 | 26 | 128 | 14.5 | 0.0 | 0.00 | 0.00 | 0.03 | 74 | 1007.9 |
| 20260508235504 | 26 | 119 | 16.1 | 0.0 | 0.00 | 0.00 | 0.03 | 73 | 1007.8 |
| 20260508235004 | 26 | 117 | 16.1 | 0.0 | 0.00 | 0.00 | 0.03 | 73 | 1007.8 |
| 20260508234504 | 26 | 103 | 14.5 | 0.0 | 0.00 | 0.00 | 0.03 | 72 | 1007.8 |
| 20260508234004 | 26 | 135 | 14.5 | 0.0 | 0.00 | 0.00 | 0.03 | 71 | 1007.9 |
| 20260508233504 | 27 | 104 | 17.7 | 0.0 | 0.00 | 0.00 | 0.03 | 69 | 1007.6 |
| 20260508233004 | 27 | 99 | 16.1 | 0.0 | 0.00 | 0.00 | 0.03 | 69 | 1007.6 |
| 20260508232504 | 27 | 128 | 14.5 | 0.0 | 0.00 | 0.00 | 0.03 | 70 | 1007.7 |
| 20260508232004 | 27 | 121 | 16.1 | 0.0 | 0.00 | 0.00 | 0.03 | 67 | 1007.8 |
| 20260508231504 | 28 | 110 | 14.5 | 0.0 | 0.00 | 0.00 | 0.03 | 66 | 1007.7 |
| 20260508231004 | 27 | 115 | 12.9 | 0.0 | 0.00 | 0.00 | 0.03 | 68 | 1007.7 |
| 20260508225504 | 27 | 106 | 11.3 | 0.0 | 0.00 | 0.00 | 0.03 | 69 | 1007.8 |
| 20260508225004 | 26 | 123 | 14.5 | 0.0 | 0.00 | 0.00 | 0.03 | 71 | 1007.7 |
| 20260508224504 | 26 | 124 | 14.5 | 0.0 | 0.00 | 0.00 | 0.03 | 70 | 1007.9 |
| 20260508224004 | 26 | 126 | 14.5 | 0.0 | 0.00 | 0.00 | 0.03 | 70 | 1007.9 |
| 20260508223504 | 26 | 113 | 14.5 | 0.0 | 0.00 | 0.00 | 0.03 | 70 | 1007.9 |
| 20260508223004 | 26 | 123 | 12.9 | 0.0 | 0.00 | 0.00 | 0.03 | 69 | 1007.9 |
| 20260508222004 | 27 | 145 | 16.1 | 0.0 | 0.00 | 0.00 | 0.03 | 68 | 1008.0 |
| 20260508221004 | 27 | 118 | 12.9 | 0.0 | 0.00 | 0.00 | 0.03 | 66 | 1007.9 |
| 20260508220504 | 27 | 133 | 11.3 | 0.0 | 0.00 | 0.00 | 0.03 | 68 | 1007.9 |
| 20260508220004 | 26 | 109 | 11.3 | 0.0 | 0.00 | 0.00 | 0.03 | 68 | 1007.9 |
| 20260508215504 | 26 | 176 | 9.7 | 0.0 | 0.00 | 0.00 | 0.03 | 68 | 1008.1 |
| 20260508215004 | 27 | 146 | 9.7 | 0.0 | 0.00 | 0.00 | 0.03 | 66 | 1008.1 |
| 20260508214504 | 27 | 178 | 8.0 | 0.0 | 0.00 | 0.00 | 0.03 | 66 | 1008.2 |
| 20260508214004 | 27 | 194 | 8.0 | 0.0 | 0.00 | 0.00 | 0.03 | 64 | 1008.2 |
| 20260508213504 | 27 | 142 | 11.3 | 0.0 | 0.00 | 0.00 | 0.03 | 64 | 1008.2 |
| 20260508213004 | 28 | 174 | 11.3 | 0.0 | 0.00 | 0.00 | 0.03 | 63 | 1008.3 |
| 20260508212504 | 28 | 193 | 8.0 | 0.0 | 0.00 | 0.00 | 0.03 | 61 | 1008.3 |